Tracking 31027 objects as of 19-Jul-2025
HD Live streaming from Space Station
objects crossing your sky now

FENGYUN 1C DEB

Track FENGYUN 1C DEB now!
10-day predictions


NORAD ID: 37418
Int'l Code: 1999-025EGL
Perigee: 851.0 km
Apogee: 2,574.0 km
Inclination: 98.6 °
Period: 120.5 minutes
Semi major axis: 8083 km
RCS: 0.0014 m2 (small)
Launch date: May 10, 1999
Source: People's Republic of China (PRC)
Launch site: Taiyaun Space Center, China (TSC)

Note: This is SATELLITE DEBRIS
Your satellite tracking list
STARLINK-2062
Track 1 satellite(s)




NASA's NSSDC Master Catalog

Two Line Element Set (TLE):
1 37418U 99025EGL 25189.60707596 -.00000675  00000-0 -16301-2 0  9996
2 37418  98.6111 134.2797 1065750 270.5410  77.3846 11.94543087476089
Source of the keplerian elements: AFSPC